Time,TemperatureF,DewpointF,PressureIn,WindDirection,WindDirectionDegrees,WindSpeedMPH,WindSpeedGustMPH,Humidity,HourlyPrecipIn,Conditions,Clouds,dailyrainin,SoftwareType,DateUTC
2013-02-07 00:03:00,39.7,32.0,30.15,ESE,118,0.0,0.0,76,0.00,,,0.00,WUHU216WMR968SP,2013-02-07 05:03:00,
2013-02-07 00:08:00,39.9,32.0,30.15,ESE,118,0.0,0.0,75,0.00,,,0.00,WUHU216WMR968SP,2013-02-07 05:08:00,
2013-02-07 00:13:00,40.3,33.8,30.15,ESE,118,0.0,0.0,75,0.00,,,0.00,WUHU216WMR968SP,2013-02-07 05:13:00,
2013-02-07 00:18:00,40.3,33.8,30.15,ESE,118,0.0,0.0,75,0.00,,,0.00,WUHU216WMR968SP,2013-02-07 05:18:00,
2013-02-07 00:23:00,40.5,33.8,30.15,ESE,118,0.0,0.0,76,0.00,,,0.00,WUHU216WMR968SP,2013-02-07 05:23:00,
2013-02-07 00:28:00,40.5,33.8,30.15,ESE,118,0.0,0.0,76,0.00,,,0.00,WUHU216WMR968SP,2013-02-07 05:28:00,
2013-02-07 00:33:00,40.6,33.8,30.15,ESE,118,0.0,0.0,76,0.00,,,0.00,WUHU216WMR968SP,2013-02-07 05:33:00,
2013-02-07 00:38:00,40.6,33.8,30.15,ESE,118,0.0,0.0,75,0.00,,,0.00,WUHU216WMR968SP,2013-02-07 05:38:00,
2013-02-07 00:43:00,40.6,33.8,30.15,ESE,118,0.0,0.0,76,0.00,,,0.00,WUHU216WMR968SP,2013-02-07 05:43:00,
2013-02-07 00:48:00,40.6,33.8,30.15,ESE,118,0.0,0.0,76,0.00,,,0.00,WUHU216WMR968SP,2013-02-07 05:48:00,
2013-02-07 00:53:00,40.5,33.8,30.15,ESE,118,0.0,0.0,76,0.00,,,0.00,WUHU216WMR968SP,2013-02-07 05:53:00,
2013-02-07 00:58:00,40.5,33.8,30.15,ESE,118,0.0,0.0,76,0.00,,,0.00,WUHU216WMR968SP,2013-02-07 05:58:00,
2013-02-07 01:03:00,40.8,33.8,30.15,ESE,118,0.0,0.0,76,0.00,,,0.00,WUHU216WMR968SP,2013-02-07 06:03:00,
2013-02-07 01:08:00,40.6,33.8,30.15,ESE,118,0.0,0.0,76,0.00,,,0.00,WUHU216WMR968SP,2013-02-07 06:08:00,
2013-02-07 01:13:00,40.5,33.8,30.15,ESE,118,0.0,0.0,76,0.00,,,0.00,WUHU216WMR968SP,2013-02-07 06:13:00,
2013-02-07 01:18:00,40.5,33.8,30.15,ESE,118,0.0,0.0,77,0.00,,,0.00,WUHU216WMR968SP,2013-02-07 06:18:00,
2013-02-07 01:23:00,40.6,33.8,30.15,ESE,118,0.0,0.0,77,0.00,,,0.00,WUHU216WMR968SP,2013-02-07 06:23:00,
2013-02-07 01:28:00,40.6,33.8,30.15,ESE,118,0.0,0.0,77,0.00,,,0.00,WUHU216WMR968SP,2013-02-07 06:28:00,
2013-02-07 01:33:00,40.6,33.8,30.15,ESE,118,0.0,0.0,77,0.00,,,0.00,WUHU216WMR968SP,2013-02-07 06:33:00,
2013-02-07 01:38:00,40.5,33.8,30.15,ESE,118,0.0,0.0,77,0.00,,,0.00,WUHU216WMR968SP,2013-02-07 06:38:00,
2013-02-07 01:43:00,40.1,33.8,30.15,ESE,107,0.0,0.0,77,0.00,,,0.00,WUHU216WMR968SP,2013-02-07 06:43:00,
2013-02-07 01:48:00,40.3,33.8,30.15,ESE,107,0.0,0.0,78,0.00,,,0.00,WUHU216WMR968SP,2013-02-07 06:48:00,
2013-02-07 01:53:00,40.6,33.8,30.12,ESE,107,0.0,0.0,78,0.00,,,0.00,WUHU216WMR968SP,2013-02-07 06:53:00,
2013-02-07 01:58:00,40.8,33.8,30.12,ESE,107,0.0,0.0,78,0.00,,,0.00,WUHU216WMR968SP,2013-02-07 06:58:00,
2013-02-07 02:03:00,40.8,33.8,30.12,ESE,107,0.0,0.0,78,0.00,,,0.00,WUHU216WMR968SP,2013-02-07 07:03:00,
2013-02-07 02:08:00,40.8,33.8,30.15,ESE,107,0.0,0.0,78,0.00,,,0.00,WUHU216WMR968SP,2013-02-07 07:08:00,
2013-02-07 02:13:00,40.8,33.8,30.15,ESE,107,0.0,0.0,78,0.00,,,0.00,WUHU216WMR968SP,2013-02-07 07:13:00,
2013-02-07 02:18:00,40.8,33.8,30.15,ESE,108,0.0,0.0,78,0.00,,,0.00,WUHU216WMR968SP,2013-02-07 07:18:00,
2013-02-07 02:24:00,41.0,33.8,30.15,ESE,108,0.0,0.0,77,0.00,,,0.00,WUHU216WMR968SP,2013-02-07 07:24:00,
2013-02-07 02:29:00,41.0,33.8,30.15,ESE,108,0.0,0.0,77,0.00,,,0.00,WUHU216WMR968SP,2013-02-07 07:29:00,
2013-02-07 02:34:00,40.6,33.8,30.15,ESE,108,0.0,0.0,78,0.00,,,0.00,WUHU216WMR968SP,2013-02-07 07:34:00,
2013-02-07 02:39:00,40.6,33.8,30.15,ESE,108,0.0,0.0,78,0.00,,,0.00,WUHU216WMR968SP,2013-02-07 07:39:00,
2013-02-07 02:44:00,41.0,33.8,30.15,ENE,74,0.0,0.0,78,0.00,,,0.00,WUHU216WMR968SP,2013-02-07 07:44:00,
2013-02-07 02:49:00,41.0,35.6,30.15,ESE,109,0.0,0.0,79,0.00,,,0.00,WUHU216WMR968SP,2013-02-07 07:49:00,
2013-02-07 02:54:00,41.0,35.6,30.15,ESE,109,0.0,0.0,79,0.00,,,0.00,WUHU216WMR968SP,2013-02-07 07:54:00,
2013-02-07 02:59:00,41.0,35.6,30.15,ESE,109,0.0,0.0,79,0.00,,,0.00,WUHU216WMR968SP,2013-02-07 07:59:00,
2013-02-07 03:04:00,41.4,35.6,30.15,ESE,109,0.0,0.0,79,0.00,,,0.00,WUHU216WMR968SP,2013-02-07 08:04:00,
2013-02-07 03:09:00,41.5,35.6,30.15,ESE,108,0.0,0.0,79,0.00,,,0.00,WUHU216WMR968SP,2013-02-07 08:09:00,
2013-02-07 03:14:00,41.5,33.8,30.15,ESE,109,0.0,0.0,78,0.00,,,0.00,WUHU216WMR968SP,2013-02-07 08:14:00,
2013-02-07 03:19:00,41.7,33.8,30.15,ESE,109,0.0,0.0,78,0.00,,,0.00,WUHU216WMR968SP,2013-02-07 08:19:00,
2013-02-07 03:24:00,41.7,33.8,30.15,ESE,109,0.0,0.0,78,0.00,,,0.00,WUHU216WMR968SP,2013-02-07 08:24:00,
2013-02-07 03:29:00,41.5,33.8,30.15,ESE,109,0.0,0.0,78,0.00,,,0.00,WUHU216WMR968SP,2013-02-07 08:29:00,
2013-02-07 03:34:00,41.4,33.8,30.15,ESE,109,0.0,0.0,78,0.00,,,0.00,WUHU216WMR968SP,2013-02-07 08:34:00,
2013-02-07 03:39:00,41.4,33.8,30.15,ESE,109,0.0,0.0,78,0.00,,,0.00,WUHU216WMR968SP,2013-02-07 08:39:00,
2013-02-07 03:44:00,41.2,33.8,30.15,ESE,109,0.0,0.0,78,0.00,,,0.00,WUHU216WMR968SP,2013-02-07 08:44:00,
2013-02-07 03:49:00,41.2,33.8,30.15,ESE,109,0.0,0.0,78,0.00,,,0.00,WUHU216WMR968SP,2013-02-07 08:49:00,
2013-02-07 03:54:00,41.2,35.6,30.15,ESE,109,0.0,0.0,79,0.00,,,0.00,WUHU216WMR968SP,2013-02-07 08:54:00,
2013-02-07 03:59:00,41.0,35.6,30.15,ESE,109,0.0,0.0,79,0.00,,,0.00,WUHU216WMR968SP,2013-02-07 08:59:00,
2013-02-07 04:04:00,41.0,35.6,30.15,ESE,113,0.0,0.0,79,0.00,,,0.00,WUHU216WMR968SP,2013-02-07 09:04:00,
2013-02-07 04:09:00,41.0,35.6,30.15,ESE,112,0.0,0.0,79,0.00,,,0.00,WUHU216WMR968SP,2013-02-07 09:09:00,
2013-02-07 04:14:00,41.0,35.6,30.15,ESE,112,0.0,0.0,79,0.00,,,0.00,WUHU216WMR968SP,2013-02-07 09:14:00,
2013-02-07 04:19:00,41.0,35.6,30.15,ESE,112,0.0,0.0,80,0.00,,,0.00,WUHU216WMR968SP,2013-02-07 09:19:00,
2013-02-07 04:24:00,41.0,35.6,30.15,ESE,112,0.0,0.0,80,0.00,,,0.00,WUHU216WMR968SP,2013-02-07 09:24:00,
2013-02-07 04:29:00,41.0,35.6,30.15,ESE,115,0.0,0.0,81,0.00,,,0.00,WUHU216WMR968SP,2013-02-07 09:29:00,
2013-02-07 04:34:00,41.2,35.6,30.15,ESE,111,0.0,0.0,81,0.00,,,0.00,WUHU216WMR968SP,2013-02-07 09:34:00,
2013-02-07 04:39:00,41.2,35.6,30.15,ESE,111,0.0,0.0,81,0.00,,,0.00,WUHU216WMR968SP,2013-02-07 09:39:00,
2013-02-07 04:44:00,41.2,35.6,30.15,ESE,111,0.0,0.0,81,0.00,,,0.00,WUHU216WMR968SP,2013-02-07 09:44:00,
2013-02-07 04:49:00,41.0,35.6,30.15,ESE,111,0.0,0.0,81,0.00,,,0.00,WUHU216WMR968SP,2013-02-07 09:49:00,
2013-02-07 04:54:00,41.0,35.6,30.15,ESE,111,0.0,0.0,81,0.00,,,0.00,WUHU216WMR968SP,2013-02-07 09:54:00,
2013-02-07 04:59:00,41.0,35.6,30.15,ESE,111,0.0,0.0,80,0.00,,,0.00,WUHU216WMR968SP,2013-02-07 09:59:00,
2013-02-07 05:05:00,41.0,35.6,30.15,ESE,111,0.0,0.0,80,0.00,,,0.00,WUHU216WMR968SP,2013-02-07 10:05:00,
2013-02-07 05:10:00,41.0,35.6,30.15,ESE,111,0.0,0.0,80,0.00,,,0.00,WUHU216WMR968SP,2013-02-07 10:10:00,
2013-02-07 05:15:00,41.0,35.6,30.15,ESE,111,0.0,0.0,80,0.00,,,0.00,WUHU216WMR968SP,2013-02-07 10:15:00,
2013-02-07 05:20:00,41.2,35.6,30.15,ESE,111,0.0,0.0,80,0.00,,,0.00,WUHU216WMR968SP,2013-02-07 10:20:00,
2013-02-07 05:25:00,41.4,35.6,30.15,ESE,121,0.0,4.1,81,0.00,,,0.00,WUHU216WMR968SP,2013-02-07 10:25:00,
2013-02-07 05:30:00,41.5,35.6,30.15,ESE,121,0.0,4.1,81,0.00,,,0.00,WUHU216WMR968SP,2013-02-07 10:30:00,
2013-02-07 05:35:00,41.5,35.6,30.12,ESE,121,0.0,0.0,81,0.00,,,0.00,WUHU216WMR968SP,2013-02-07 10:35:00,
2013-02-07 05:40:00,41.5,35.6,30.12,ESE,121,0.0,0.0,81,0.00,,,0.00,WUHU216WMR968SP,2013-02-07 10:40:00,
2013-02-07 05:45:00,41.5,35.6,30.12,ESE,121,0.0,0.0,80,0.00,,,0.00,WUHU216WMR968SP,2013-02-07 10:45:00,
2013-02-07 05:50:00,41.7,35.6,30.12,ESE,121,0.0,0.0,79,0.00,,,0.00,WUHU216WMR968SP,2013-02-07 10:50:00,
2013-02-07 05:55:00,41.7,35.6,30.12,ESE,121,0.0,0.0,79,0.00,,,0.00,WUHU216WMR968SP,2013-02-07 10:55:00,
2013-02-07 06:00:00,41.7,35.6,30.12,ESE,121,0.0,0.0,79,0.00,,,0.00,WUHU216WMR968SP,2013-02-07 11:00:00,
2013-02-07 06:05:00,41.7,35.6,30.12,ESE,121,0.0,0.0,79,0.00,,,0.00,WUHU216WMR968SP,2013-02-07 11:05:00,
2013-02-07 06:10:00,41.5,35.6,30.12,ESE,121,0.0,0.0,79,0.00,,,0.00,WUHU216WMR968SP,2013-02-07 11:10:00,
2013-02-07 06:15:00,41.5,35.6,30.12,ESE,121,0.0,0.0,79,0.00,,,0.00,WUHU216WMR968SP,2013-02-07 11:15:00,
2013-02-07 06:20:00,41.5,35.6,30.15,ESE,121,0.0,0.0,79,0.00,,,0.00,WUHU216WMR968SP,2013-02-07 11:20:00,
2013-02-07 06:25:00,41.7,35.6,30.15,ESE,121,0.0,0.0,79,0.00,,,0.00,WUHU216WMR968SP,2013-02-07 11:25:00,
2013-02-07 06:30:00,41.7,35.6,30.15,ESE,121,0.0,0.0,79,0.00,,,0.00,WUHU216WMR968SP,2013-02-07 11:30:00,
2013-02-07 06:35:00,41.9,35.6,30.15,ESE,120,0.0,0.0,78,0.00,,,0.00,WUHU216WMR968SP,2013-02-07 11:35:00,
2013-02-07 06:40:00,41.9,35.6,30.15,ESE,119,0.0,0.0,78,0.00,,,0.00,WUHU216WMR968SP,2013-02-07 11:40:00,
2013-02-07 06:45:00,42.1,35.6,30.15,ESE,120,0.0,0.0,78,0.00,,,0.00,WUHU216WMR968SP,2013-02-07 11:45:00,
2013-02-07 06:50:00,42.3,35.6,30.15,ESE,120,0.0,0.0,78,0.00,,,0.00,WUHU216WMR968SP,2013-02-07 11:50:00,
2013-02-07 06:55:00,42.1,35.6,30.15,ESE,120,0.0,0.0,78,0.00,,,0.00,WUHU216WMR968SP,2013-02-07 11:55:00,
2013-02-07 07:00:00,42.1,35.6,30.15,ESE,120,0.0,0.0,78,0.00,,,0.00,WUHU216WMR968SP,2013-02-07 12:00:00,
2013-02-07 07:05:00,41.7,33.8,30.15,ESE,120,0.0,0.0,78,0.00,,,0.00,WUHU216WMR968SP,2013-02-07 12:05:00,
2013-02-07 07:10:00,41.5,35.6,30.15,ESE,120,0.0,0.0,79,0.00,,,0.00,WUHU216WMR968SP,2013-02-07 12:10:00,
2013-02-07 07:15:00,41.5,33.8,30.15,ESE,119,0.0,0.0,78,0.00,,,0.00,WUHU216WMR968SP,2013-02-07 12:15:00,
2013-02-07 07:20:00,41.5,33.8,30.12,ESE,120,0.0,0.0,78,0.00,,,0.00,WUHU216WMR968SP,2013-02-07 12:20:00,
2013-02-07 07:25:00,41.5,33.8,30.12,ESE,120,0.0,0.0,78,0.00,,,0.00,WUHU216WMR968SP,2013-02-07 12:25:00,
2013-02-07 07:30:00,41.5,33.8,30.12,ESE,119,0.0,0.0,78,0.00,,,0.00,WUHU216WMR968SP,2013-02-07 12:30:00,
2013-02-07 07:36:00,41.7,33.8,30.12,ESE,119,0.0,0.0,78,0.00,,,0.00,WUHU216WMR968SP,2013-02-07 12:36:00,
2013-02-07 07:41:00,41.7,33.8,30.12,ESE,119,0.0,0.0,78,0.00,,,0.00,WUHU216WMR968SP,2013-02-07 12:41:00,
2013-02-07 07:46:00,41.9,35.6,30.12,ESE,119,0.0,0.0,78,0.00,,,0.00,WUHU216WMR968SP,2013-02-07 12:46:00,
2013-02-07 07:51:00,42.3,35.6,30.12,ESE,115,0.0,0.0,77,0.00,,,0.00,WUHU216WMR968SP,2013-02-07 12:51:00,
2013-02-07 07:56:00,42.3,35.6,30.12,ESE,111,0.0,0.0,77,0.00,,,0.00,WUHU216WMR968SP,2013-02-07 12:56:00,
2013-02-07 08:01:00,42.3,35.6,30.12,ESE,111,0.0,0.0,77,0.00,,,0.00,WUHU216WMR968SP,2013-02-07 13:01:00,
2013-02-07 08:06:00,42.4,35.6,30.12,ESE,111,0.0,0.0,77,0.00,,,0.00,WUHU216WMR968SP,2013-02-07 13:06:00,
2013-02-07 08:11:00,42.4,35.6,30.12,ESE,111,0.0,0.0,76,0.00,,,0.00,WUHU216WMR968SP,2013-02-07 13:11:00,
2013-02-07 08:16:00,42.4,35.6,30.12,ESE,111,0.0,0.0,77,0.00,,,0.00,WUHU216WMR968SP,2013-02-07 13:16:00,
2013-02-07 08:21:00,42.4,35.6,30.12,ESE,111,0.0,0.0,77,0.00,,,0.00,WUHU216WMR968SP,2013-02-07 13:21:00,
2013-02-07 08:26:00,42.4,35.6,30.12,ESE,111,0.0,0.0,77,0.00,,,0.00,WUHU216WMR968SP,2013-02-07 13:26:00,
2013-02-07 08:31:00,42.6,35.6,30.12,ESE,111,0.0,0.0,77,0.00,,,0.00,WUHU216WMR968SP,2013-02-07 13:31:00,
2013-02-07 08:36:00,42.8,35.6,30.15,ESE,111,0.0,0.0,77,0.00,,,0.00,WUHU216WMR968SP,2013-02-07 13:36:00,
2013-02-07 08:41:00,42.8,35.6,30.15,ESE,111,0.0,0.0,77,0.00,,,0.00,WUHU216WMR968SP,2013-02-07 13:41:00,
2013-02-07 08:46:00,42.8,35.6,30.15,ESE,111,0.0,0.0,78,0.00,,,0.00,WUHU216WMR968SP,2013-02-07 13:46:00,
2013-02-07 08:51:00,43.0,35.6,30.12,ESE,111,0.0,0.0,78,0.00,,,0.00,WUHU216WMR968SP,2013-02-07 13:51:00,
2013-02-07 08:56:00,43.2,35.6,30.12,ESE,111,0.0,0.0,78,0.00,,,0.00,WUHU216WMR968SP,2013-02-07 13:56:00,
2013-02-07 09:01:00,43.3,35.6,30.12,ESE,111,0.0,0.0,77,0.00,,,0.00,WUHU216WMR968SP,2013-02-07 14:01:00,
2013-02-07 09:06:00,43.5,35.6,30.15,ESE,111,0.0,0.0,76,0.00,,,0.00,WUHU216WMR968SP,2013-02-07 14:06:00,
2013-02-07 09:11:00,43.9,37.4,30.15,ESE,111,0.0,0.0,76,0.00,,,0.00,WUHU216WMR968SP,2013-02-07 14:11:00,
2013-02-07 09:16:00,44.1,37.4,30.15,ESE,111,0.0,0.0,75,0.00,,,0.00,WUHU216WMR968SP,2013-02-07 14:16:00,
2013-02-07 09:21:00,44.2,37.4,30.15,ESE,111,0.0,0.0,75,0.00,,,0.00,WUHU216WMR968SP,2013-02-07 14:21:00,
2013-02-07 09:26:00,44.2,37.4,30.15,ESE,111,0.0,0.0,74,0.00,,,0.00,WUHU216WMR968SP,2013-02-07 14:26:00,
2013-02-07 09:31:00,44.4,37.4,30.15,ESE,111,0.0,0.0,74,0.00,,,0.00,WUHU216WMR968SP,2013-02-07 14:31:00,
2013-02-07 09:36:00,44.4,35.6,30.12,ESE,111,0.0,0.0,73,0.00,,,0.00,WUHU216WMR968SP,2013-02-07 14:36:00,
2013-02-07 09:41:00,44.6,35.6,30.12,North,8,0.0,0.0,72,0.00,,,0.00,WUHU216WMR968SP,2013-02-07 14:41:00,
2013-02-07 09:46:00,44.6,35.6,30.12,ENE,70,0.0,0.0,72,0.00,,,0.00,WUHU216WMR968SP,2013-02-07 14:46:00,
2013-02-07 09:51:00,44.8,35.6,30.12,ENE,68,0.0,0.0,71,0.00,,,0.00,WUHU216WMR968SP,2013-02-07 14:51:00,
2013-02-07 09:56:00,44.8,35.6,30.12,NE,49,0.0,3.3,71,0.00,,,0.00,WUHU216WMR968SP,2013-02-07 14:56:00,
2013-02-07 10:01:00,45.0,35.6,30.12,NE,49,0.0,3.3,70,0.00,,,0.00,WUHU216WMR968SP,2013-02-07 15:01:00,
2013-02-07 10:06:00,45.0,35.6,30.12,NE,49,0.0,0.0,70,0.00,,,0.00,WUHU216WMR968SP,2013-02-07 15:06:00,
2013-02-07 10:11:00,45.1,35.6,30.12,NE,49,0.0,0.0,69,0.00,,,0.00,WUHU216WMR968SP,2013-02-07 15:11:00,
2013-02-07 10:16:00,45.3,35.6,30.12,NE,49,0.0,0.0,69,0.00,,,0.00,WUHU216WMR968SP,2013-02-07 15:16:00,
2013-02-07 10:21:00,45.5,37.4,30.12,NE,49,0.0,0.0,70,0.00,,,0.00,WUHU216WMR968SP,2013-02-07 15:21:00,
2013-02-07 10:26:00,45.7,37.4,30.12,NE,49,0.0,0.0,70,0.00,,,0.00,WUHU216WMR968SP,2013-02-07 15:26:00,
2013-02-07 10:31:00,45.9,37.4,30.12,NE,49,0.0,0.0,69,0.00,,,0.00,WUHU216WMR968SP,2013-02-07 15:31:00,
2013-02-07 10:36:00,46.0,35.6,30.12,NE,49,0.0,0.0,68,0.00,,,0.00,WUHU216WMR968SP,2013-02-07 15:36:00,
2013-02-07 10:42:00,46.2,35.6,30.12,ENE,57,0.0,0.0,67,0.00,,,0.00,WUHU216WMR968SP,2013-02-07 15:42:00,
2013-02-07 10:47:00,46.4,35.6,30.12,ESE,119,0.0,4.1,66,0.00,,,0.00,WUHU216WMR968SP,2013-02-07 15:47:00,
2013-02-07 10:52:00,46.4,35.6,30.12,ESE,119,0.0,4.1,66,0.00,,,0.00,WUHU216WMR968SP,2013-02-07 15:52:00,
2013-02-07 10:57:00,46.6,35.6,30.12,ESE,119,0.0,0.0,65,0.00,,,0.00,WUHU216WMR968SP,2013-02-07 15:57:00,
2013-02-07 11:02:00,46.8,35.6,30.12,ESE,119,0.0,0.0,64,0.00,,,0.00,WUHU216WMR968SP,2013-02-07 16:02:00,
2013-02-07 11:07:00,46.9,35.6,30.12,ESE,119,0.0,0.0,64,0.00,,,0.00,WUHU216WMR968SP,2013-02-07 16:07:00,
2013-02-07 11:12:00,47.3,37.4,30.12,ESE,119,0.0,0.0,64,0.00,,,0.00,WUHU216WMR968SP,2013-02-07 16:12:00,
2013-02-07 11:17:00,47.5,35.6,30.12,ESE,119,0.0,0.0,63,0.00,,,0.00,WUHU216WMR968SP,2013-02-07 16:17:00,
2013-02-07 11:22:00,47.7,35.6,30.12,ESE,119,0.0,0.0,62,0.00,,,0.00,WUHU216WMR968SP,2013-02-07 16:22:00,
2013-02-07 11:27:00,47.8,35.6,30.12,ESE,119,0.0,0.0,62,0.00,,,0.00,WUHU216WMR968SP,2013-02-07 16:27:00,
2013-02-07 11:32:00,48.2,35.6,30.12,ESE,119,0.0,0.0,61,0.00,,,0.00,WUHU216WMR968SP,2013-02-07 16:32:00,
2013-02-07 11:37:00,48.6,35.6,30.09,East,94,0.0,0.0,60,0.00,,,0.00,WUHU216WMR968SP,2013-02-07 16:37:00,
2013-02-07 11:42:00,48.9,35.6,30.09,East,91,0.0,0.0,60,0.00,,,0.00,WUHU216WMR968SP,2013-02-07 16:42:00,
2013-02-07 11:47:00,49.5,35.6,30.09,ENE,63,0.0,0.0,59,0.00,,,0.00,WUHU216WMR968SP,2013-02-07 16:47:00,
2013-02-07 11:52:00,49.3,35.6,30.09,ENE,63,0.0,0.0,58,0.00,,,0.00,WUHU216WMR968SP,2013-02-07 16:52:00,
2013-02-07 11:57:00,50.0,35.6,30.09,NNE,27,0.0,0.0,57,0.00,,,0.00,WUHU216WMR968SP,2013-02-07 16:57:00,
2013-02-07 12:02:00,50.2,35.6,30.09,NE,41,0.0,0.0,57,0.00,,,0.00,WUHU216WMR968SP,2013-02-07 17:02:00,
2013-02-07 12:07:00,50.4,35.6,30.09,NE,41,0.0,0.0,56,0.00,,,0.00,WUHU216WMR968SP,2013-02-07 17:07:00,
2013-02-07 12:12:00,50.7,35.6,30.09,NE,41,0.0,0.0,56,0.00,,,0.00,WUHU216WMR968SP,2013-02-07 17:12:00,
2013-02-07 12:17:00,50.9,37.4,30.09,NE,41,0.0,0.0,56,0.00,,,0.00,WUHU216WMR968SP,2013-02-07 17:17:00,
2013-02-07 12:22:00,51.1,35.6,30.09,NE,41,0.0,0.0,55,0.00,,,0.00,WUHU216WMR968SP,2013-02-07 17:22:00,
2013-02-07 12:27:00,51.4,35.6,30.09,East,91,0.0,0.0,55,0.00,,,0.00,WUHU216WMR968SP,2013-02-07 17:27:00,
2013-02-07 12:32:00,51.6,35.6,30.09,NE,51,0.0,0.0,54,0.00,,,0.00,WUHU216WMR968SP,2013-02-07 17:32:00,
2013-02-07 12:37:00,51.6,35.6,30.06,NE,49,0.0,0.0,54,0.00,,,0.00,WUHU216WMR968SP,2013-02-07 17:37:00,
2013-02-07 12:42:00,52.0,35.6,30.06,NE,49,0.0,0.0,53,0.00,,,0.00,WUHU216WMR968SP,2013-02-07 17:42:00,
2013-02-07 12:47:00,52.3,35.6,30.06,NNE,19,0.0,0.0,53,0.00,,,0.00,WUHU216WMR968SP,2013-02-07 17:47:00,
2013-02-07 12:52:00,52.5,35.6,30.06,NNE,19,0.0,0.0,52,0.00,,,0.00,WUHU216WMR968SP,2013-02-07 17:52:00,
2013-02-07 12:57:00,52.9,35.6,30.06,NNE,20,0.0,0.0,51,0.00,,,0.00,WUHU216WMR968SP,2013-02-07 17:57:00,
2013-02-07 13:02:00,52.9,35.6,30.06,NE,43,0.0,4.6,51,0.00,,,0.00,WUHU216WMR968SP,2013-02-07 18:02:00,
2013-02-07 13:07:00,53.1,35.6,30.06,NNE,29,0.0,4.6,51,0.00,,,0.00,WUHU216WMR968SP,2013-02-07 18:07:00,
2013-02-07 13:13:00,53.2,35.6,30.06,NNE,28,0.0,4.6,51,0.00,,,0.00,WUHU216WMR968SP,2013-02-07 18:13:00,
2013-02-07 13:18:00,53.4,35.6,30.06,NE,36,0.0,0.0,50,0.00,,,0.00,WUHU216WMR968SP,2013-02-07 18:18:00,
2013-02-07 13:23:00,53.6,35.6,30.03,NE,36,0.0,0.0,50,0.00,,,0.00,WUHU216WMR968SP,2013-02-07 18:23:00,
2013-02-07 13:28:00,53.2,35.6,30.03,West,266,4.6,5.4,51,0.00,,,0.00,WUHU216WMR968SP,2013-02-07 18:28:00,
2013-02-07 13:33:00,52.5,33.8,30.03,SW,229,0.0,5.4,51,0.00,,,0.00,WUHU216WMR968SP,2013-02-07 18:33:00,
2013-02-07 13:38:00,52.0,33.8,30.03,SW,230,0.0,4.6,51,0.00,,,0.00,WUHU216WMR968SP,2013-02-07 18:38:00,
2013-02-07 13:43:00,51.6,35.6,30.03,SW,231,0.0,0.0,52,0.00,,,0.00,WUHU216WMR968SP,2013-02-07 18:43:00,
2013-02-07 13:48:00,51.6,35.6,30.03,SW,231,0.0,0.0,52,0.00,,,0.00,WUHU216WMR968SP,2013-02-07 18:48:00,
2013-02-07 13:53:00,51.6,35.6,30.03,SW,226,0.0,0.0,52,0.00,,,0.00,WUHU216WMR968SP,2013-02-07 18:53:00,
2013-02-07 13:58:00,51.6,35.6,30.03,SW,227,0.0,0.0,52,0.00,,,0.00,WUHU216WMR968SP,2013-02-07 18:58:00,
2013-02-07 14:03:00,51.8,35.6,30.03,SW,227,0.0,0.0,52,0.00,,,0.00,WUHU216WMR968SP,2013-02-07 19:03:00,
2013-02-07 14:08:00,52.0,35.6,30.03,SW,228,0.0,0.0,52,0.00,,,0.00,WUHU216WMR968SP,2013-02-07 19:08:00,
2013-02-07 14:13:00,52.2,35.6,30.03,SW,228,0.0,0.0,52,0.00,,,0.00,WUHU216WMR968SP,2013-02-07 19:13:00,
2013-02-07 14:18:00,52.2,35.6,30.03,SW,228,0.0,0.0,52,0.00,,,0.00,WUHU216WMR968SP,2013-02-07 19:18:00,
2013-02-07 14:23:00,52.2,35.6,30.03,WSW,245,0.0,0.0,52,0.00,,,0.00,WUHU216WMR968SP,2013-02-07 19:23:00,
2013-02-07 14:28:00,52.2,35.6,30.03,WSW,245,0.0,0.0,52,0.00,,,0.00,WUHU216WMR968SP,2013-02-07 19:28:00,
2013-02-07 14:33:00,52.2,35.6,30.03,WSW,245,0.0,0.0,52,0.00,,,0.00,WUHU216WMR968SP,2013-02-07 19:33:00,
2013-02-07 14:38:00,52.2,35.6,30.00,WSW,245,0.0,0.0,52,0.00,,,0.00,WUHU216WMR968SP,2013-02-07 19:38:00,
2013-02-07 14:43:00,52.3,35.6,30.00,WSW,245,0.0,0.0,52,0.00,,,0.00,WUHU216WMR968SP,2013-02-07 19:43:00,
2013-02-07 14:48:00,52.3,35.6,30.00,WSW,245,0.0,0.0,52,0.00,,,0.00,WUHU216WMR968SP,2013-02-07 19:48:00,
2013-02-07 14:53:00,52.5,35.6,30.00,WSW,245,0.0,0.0,52,0.00,,,0.00,WUHU216WMR968SP,2013-02-07 19:53:00,
2013-02-07 14:58:00,52.5,35.6,30.00,WSW,245,0.0,0.0,52,0.00,,,0.00,WUHU216WMR968SP,2013-02-07 19:58:00,
2013-02-07 15:03:00,52.3,35.6,30.00,WSW,245,0.0,0.0,52,0.00,,,0.00,WUHU216WMR968SP,2013-02-07 20:03:00,
2013-02-07 15:08:00,52.3,35.6,30.00,WSW,245,0.0,0.0,52,0.00,,,0.00,WUHU216WMR968SP,2013-02-07 20:08:00,
2013-02-07 15:14:00,52.3,35.6,30.00,WSW,245,0.0,0.0,53,0.00,,,0.00,WUHU216WMR968SP,2013-02-07 20:14:00,
2013-02-07 15:19:00,52.3,35.6,30.00,WSW,245,0.0,0.0,53,0.00,,,0.00,WUHU216WMR968SP,2013-02-07 20:19:00,
2013-02-07 15:24:00,52.3,35.6,30.00,WSW,245,0.0,0.0,53,0.00,,,0.00,WUHU216WMR968SP,2013-02-07 20:24:00,
2013-02-07 15:29:00,52.5,35.6,30.00,WSW,245,0.0,0.0,54,0.00,,,0.00,WUHU216WMR968SP,2013-02-07 20:29:00,
2013-02-07 15:34:00,52.5,35.6,30.00,WSW,245,0.0,0.0,54,0.00,,,0.00,WUHU216WMR968SP,2013-02-07 20:34:00,
2013-02-07 15:39:00,52.3,35.6,30.00,WSW,245,0.0,0.0,54,0.00,,,0.00,WUHU216WMR968SP,2013-02-07 20:39:00,
2013-02-07 15:44:00,52.3,35.6,30.00,WSW,245,0.0,0.0,53,0.00,,,0.00,WUHU216WMR968SP,2013-02-07 20:44:00,
2013-02-07 15:49:00,52.3,35.6,30.00,WSW,245,0.0,0.0,53,0.00,,,0.00,WUHU216WMR968SP,2013-02-07 20:49:00,
2013-02-07 15:54:00,52.5,35.6,30.00,WSW,245,0.0,0.0,53,0.00,,,0.00,WUHU216WMR968SP,2013-02-07 20:54:00,
2013-02-07 15:59:00,52.5,35.6,30.00,WSW,245,0.0,0.0,53,0.00,,,0.00,WUHU216WMR968SP,2013-02-07 20:59:00,
2013-02-07 16:04:00,52.3,35.6,30.00,WSW,245,0.0,0.0,54,0.00,,,0.00,WUHU216WMR968SP,2013-02-07 21:04:00,
2013-02-07 16:09:00,52.2,35.6,30.00,WSW,245,0.0,0.0,54,0.00,,,0.00,WUHU216WMR968SP,2013-02-07 21:09:00,
2013-02-07 16:14:00,52.2,35.6,30.00,WSW,245,0.0,0.0,53,0.00,,,0.00,WUHU216WMR968SP,2013-02-07 21:14:00,
2013-02-07 16:19:00,52.0,35.6,30.00,WSW,245,0.0,0.0,55,0.00,,,0.00,WUHU216WMR968SP,2013-02-07 21:19:00,
2013-02-07 16:24:00,51.8,37.4,30.00,WSW,245,0.0,0.0,56,0.00,,,0.00,WUHU216WMR968SP,2013-02-07 21:24:00,
2013-02-07 16:29:00,51.8,37.4,30.00,WSW,245,0.0,0.0,57,0.00,,,0.00,WUHU216WMR968SP,2013-02-07 21:29:00,
2013-02-07 16:34:00,51.6,37.4,30.00,WSW,245,0.0,0.0,58,0.00,,,0.00,WUHU216WMR968SP,2013-02-07 21:34:00,
2013-02-07 16:39:00,51.4,37.4,30.00,WSW,245,0.0,0.0,57,0.00,,,0.00,WUHU216WMR968SP,2013-02-07 21:39:00,
2013-02-07 16:44:00,51.3,37.4,30.00,WSW,245,0.0,0.0,57,0.00,,,0.00,WUHU216WMR968SP,2013-02-07 21:44:00,
2013-02-07 16:49:00,51.3,37.4,30.00,WSW,245,0.0,0.0,57,0.00,,,0.00,WUHU216WMR968SP,2013-02-07 21:49:00,
2013-02-07 16:54:00,51.3,37.4,30.00,WSW,245,0.0,0.0,57,0.00,,,0.00,WUHU216WMR968SP,2013-02-07 21:54:00,
2013-02-07 16:59:00,51.1,37.4,30.00,WSW,245,0.0,0.0,57,0.00,,,0.00,WUHU216WMR968SP,2013-02-07 21:59:00,
2013-02-07 17:04:00,51.1,37.4,30.00,WSW,245,0.0,0.0,57,0.00,,,0.00,WUHU216WMR968SP,2013-02-07 22:04:00,
2013-02-07 17:09:00,50.9,37.4,30.00,WSW,245,0.0,0.0,57,0.00,,,0.00,WUHU216WMR968SP,2013-02-07 22:09:00,
2013-02-07 17:14:00,50.9,37.4,30.00,WSW,245,0.0,0.0,58,0.00,,,0.00,WUHU216WMR968SP,2013-02-07 22:14:00,
2013-02-07 17:19:00,50.9,37.4,30.00,WSW,245,0.0,0.0,58,0.00,,,0.00,WUHU216WMR968SP,2013-02-07 22:19:00,
2013-02-07 17:24:00,50.7,35.6,30.00,WSW,245,0.0,0.0,59,0.00,,,0.00,WUHU216WMR968SP,2013-02-07 22:24:00,
2013-02-07 17:29:00,50.7,35.6,30.00,WSW,245,0.0,0.0,59,0.00,,,0.00,WUHU216WMR968SP,2013-02-07 22:29:00,
2013-02-07 17:34:00,50.7,37.4,30.00,WSW,245,0.0,0.0,60,0.00,,,0.00,WUHU216WMR968SP,2013-02-07 22:34:00,
2013-02-07 17:39:00,50.7,37.4,30.00,WSW,245,0.0,0.0,62,0.00,,,0.00,WUHU216WMR968SP,2013-02-07 22:39:00,
2013-02-07 17:44:00,50.5,37.4,30.00,WSW,245,0.0,0.0,61,0.00,,,0.00,WUHU216WMR968SP,2013-02-07 22:44:00,
2013-02-07 17:49:00,50.5,37.4,30.00,WSW,245,0.0,0.0,62,0.00,,,0.00,WUHU216WMR968SP,2013-02-07 22:49:00,
2013-02-07 17:55:00,50.5,37.4,30.00,WSW,245,0.0,0.0,62,0.00,,,0.00,WUHU216WMR968SP,2013-02-07 22:55:00,
2013-02-07 18:00:00,50.5,37.4,30.00,WSW,245,0.0,0.0,62,0.00,,,0.00,WUHU216WMR968SP,2013-02-07 23:00:00,
2013-02-07 18:05:00,50.4,37.4,30.00,WSW,245,0.0,0.0,63,0.00,,,0.00,WUHU216WMR968SP,2013-02-07 23:05:00,
2013-02-07 18:10:00,50.4,37.4,30.00,WSW,245,0.0,0.0,63,0.00,,,0.00,WUHU216WMR968SP,2013-02-07 23:10:00,
2013-02-07 18:15:00,50.2,39.2,30.00,WSW,245,0.0,0.0,64,0.00,,,0.00,WUHU216WMR968SP,2013-02-07 23:15:00,
2013-02-07 18:20:00,50.0,39.2,30.00,WSW,245,0.0,0.0,65,0.00,,,0.00,WUHU216WMR968SP,2013-02-07 23:20:00,
2013-02-07 18:25:00,50.0,39.2,30.00,WSW,245,0.0,0.0,65,0.00,,,0.00,WUHU216WMR968SP,2013-02-07 23:25:00,
2013-02-07 18:30:00,50.0,39.2,30.00,WSW,245,0.0,0.0,66,0.00,,,0.00,WUHU216WMR968SP,2013-02-07 23:30:00,
2013-02-07 18:35:00,49.8,39.2,30.00,WSW,245,0.0,0.0,67,0.00,,,0.00,WUHU216WMR968SP,2013-02-07 23:35:00,
2013-02-07 18:40:00,49.8,39.2,30.00,WSW,245,0.0,0.0,67,0.00,,,0.00,WUHU216WMR968SP,2013-02-07 23:40:00,
2013-02-07 18:45:00,49.6,39.2,30.00,WSW,245,0.0,0.0,68,0.00,,,0.00,WUHU216WMR968SP,2013-02-07 23:45:00,
2013-02-07 18:50:00,49.5,39.2,30.00,WSW,245,0.0,0.0,68,0.00,,,0.00,WUHU216WMR968SP,2013-02-07 23:50:00,
2013-02-07 18:55:00,49.5,41.0,30.00,WSW,245,0.0,0.0,69,0.00,,,0.00,WUHU216WMR968SP,2013-02-07 23:55:00,
2013-02-07 19:00:00,49.3,41.0,30.00,WSW,245,0.0,0.0,70,0.00,,,0.00,WUHU216WMR968SP,2013-02-08 00:00:00,
2013-02-07 19:05:00,49.1,41.0,30.00,WSW,245,0.0,0.0,70,0.00,,,0.00,WUHU216WMR968SP,2013-02-08 00:05:00,
2013-02-07 19:10:00,48.9,39.2,30.00,WSW,245,0.0,0.0,71,0.00,,,0.00,WUHU216WMR968SP,2013-02-08 00:10:00,
2013-02-07 19:15:00,48.7,39.2,30.00,South,175,0.0,0.0,71,0.00,,,0.00,WUHU216WMR968SP,2013-02-08 00:15:00,
2013-02-07 19:20:00,48.7,39.2,30.00,South,175,0.0,0.0,72,0.00,,,0.00,WUHU216WMR968SP,2013-02-08 00:20:00,
2013-02-07 19:25:00,48.7,39.2,30.00,South,175,0.0,0.0,73,0.00,,,0.00,WUHU216WMR968SP,2013-02-08 00:25:00,
2013-02-07 19:30:00,48.7,39.2,30.00,South,175,0.0,0.0,73,0.00,,,0.00,WUHU216WMR968SP,2013-02-08 00:30:00,
2013-02-07 19:35:00,48.6,39.2,30.00,South,175,0.0,0.0,73,0.00,,,0.00,WUHU216WMR968SP,2013-02-08 00:35:00,
2013-02-07 19:40:00,48.6,41.0,30.00,South,175,0.0,0.0,74,0.00,,,0.00,WUHU216WMR968SP,2013-02-08 00:40:00,
2013-02-07 19:45:00,48.4,41.0,30.00,South,175,0.0,0.0,74,0.00,,,0.00,WUHU216WMR968SP,2013-02-08 00:45:00,
2013-02-07 19:50:00,48.4,41.0,30.00,South,175,0.0,0.0,75,0.00,,,0.00,WUHU216WMR968SP,2013-02-08 00:50:00,
2013-02-07 19:55:00,48.4,41.0,30.00,South,175,0.0,0.0,75,0.00,,,0.00,WUHU216WMR968SP,2013-02-08 00:55:00,
2013-02-07 20:00:00,48.2,41.0,30.00,South,175,0.0,0.0,75,0.00,,,0.00,WUHU216WMR968SP,2013-02-08 01:00:00,
2013-02-07 20:05:00,48.2,41.0,30.00,South,174,0.0,0.0,76,0.00,,,0.00,WUHU216WMR968SP,2013-02-08 01:05:00,
2013-02-07 20:10:00,48.2,41.0,30.00,South,175,0.0,0.0,76,0.00,,,0.00,WUHU216WMR968SP,2013-02-08 01:10:00,
2013-02-07 20:15:00,48.0,41.0,30.00,South,175,0.0,0.0,76,0.00,,,0.00,WUHU216WMR968SP,2013-02-08 01:15:00,
2013-02-07 20:20:00,48.0,41.0,30.00,South,174,0.0,0.0,77,0.00,,,0.00,WUHU216WMR968SP,2013-02-08 01:20:00,
2013-02-07 20:25:00,47.8,41.0,30.00,South,175,0.0,0.0,77,0.00,,,0.00,WUHU216WMR968SP,2013-02-08 01:25:00,
2013-02-07 20:30:00,47.8,41.0,30.00,South,175,0.0,0.0,77,0.00,,,0.00,WUHU216WMR968SP,2013-02-08 01:30:00,
2013-02-07 20:36:00,47.7,41.0,30.00,South,175,0.0,0.0,78,0.00,,,0.00,WUHU216WMR968SP,2013-02-08 01:36:00,
2013-02-07 20:41:00,47.5,42.8,30.00,South,175,0.0,0.0,79,0.00,,,0.00,WUHU216WMR968SP,2013-02-08 01:41:00,
2013-02-07 20:46:00,47.5,42.8,30.00,South,175,0.0,0.0,79,0.00,,,0.00,WUHU216WMR968SP,2013-02-08 01:46:00,
2013-02-07 20:51:00,47.5,42.8,30.00,South,174,0.0,0.0,79,0.00,,,0.00,WUHU216WMR968SP,2013-02-08 01:51:00,
2013-02-07 20:56:00,47.5,42.8,30.00,South,175,0.0,0.0,79,0.00,,,0.00,WUHU216WMR968SP,2013-02-08 01:56:00,
2013-02-07 21:01:00,47.3,42.8,30.00,South,175,0.0,0.0,80,0.00,,,0.00,WUHU216WMR968SP,2013-02-08 02:01:00,
2013-02-07 21:06:00,47.3,42.8,29.97,South,174,0.0,0.0,80,0.00,,,0.00,WUHU216WMR968SP,2013-02-08 02:06:00,
2013-02-07 21:11:00,47.1,41.0,29.97,South,175,0.0,0.0,80,0.00,,,0.00,WUHU216WMR968SP,2013-02-08 02:11:00,
2013-02-07 21:16:00,46.9,41.0,29.97,South,175,0.0,0.0,80,0.00,,,0.00,WUHU216WMR968SP,2013-02-08 02:16:00,
2013-02-07 21:21:00,46.9,41.0,30.00,SSE,160,0.0,0.0,81,0.00,,,0.00,WUHU216WMR968SP,2013-02-08 02:21:00,
2013-02-07 21:26:00,46.9,41.0,30.00,SE,129,0.0,0.0,81,0.00,,,0.00,WUHU216WMR968SP,2013-02-08 02:26:00,
2013-02-07 21:31:00,47.1,41.0,30.00,SE,129,0.0,0.0,82,0.00,,,0.00,WUHU216WMR968SP,2013-02-08 02:31:00,
2013-02-07 21:36:00,47.1,41.0,29.97,SE,129,0.0,0.0,81,0.00,,,0.00,WUHU216WMR968SP,2013-02-08 02:36:00,
2013-02-07 21:41:00,47.1,41.0,29.97,SE,129,0.0,0.0,81,0.00,,,0.00,WUHU216WMR968SP,2013-02-08 02:41:00,
2013-02-07 21:46:00,47.1,41.0,29.97,SE,129,0.0,0.0,81,0.00,,,0.00,WUHU216WMR968SP,2013-02-08 02:46:00,
2013-02-07 21:51:00,47.1,41.0,30.00,SE,129,0.0,0.0,82,0.00,,,0.00,WUHU216WMR968SP,2013-02-08 02:51:00,
2013-02-07 21:56:00,47.1,41.0,30.00,SE,129,0.0,0.0,82,0.00,,,0.00,WUHU216WMR968SP,2013-02-08 02:56:00,
2013-02-07 22:01:00,47.1,41.0,30.00,SE,129,0.0,0.0,82,0.00,,,0.00,WUHU216WMR968SP,2013-02-08 03:01:00,
2013-02-07 22:06:00,47.1,41.0,30.00,SE,129,0.0,0.0,82,0.00,,,0.00,WUHU216WMR968SP,2013-02-08 03:06:00,
2013-02-07 22:11:00,47.1,41.0,30.00,SE,129,0.0,0.0,82,0.00,,,0.00,WUHU216WMR968SP,2013-02-08 03:11:00,
2013-02-07 22:16:00,47.1,41.0,30.00,SE,129,0.0,0.0,82,0.00,,,0.00,WUHU216WMR968SP,2013-02-08 03:16:00,
2013-02-07 22:21:00,47.1,41.0,29.97,SE,129,0.0,0.0,82,0.00,,,0.00,WUHU216WMR968SP,2013-02-08 03:21:00,
2013-02-07 22:26:00,47.1,41.0,29.97,SE,129,0.0,0.0,82,0.00,,,0.00,WUHU216WMR968SP,2013-02-08 03:26:00,
2013-02-07 22:31:00,47.1,41.0,29.97,SE,129,0.0,0.0,83,0.00,,,0.00,WUHU216WMR968SP,2013-02-08 03:31:00,
2013-02-07 22:36:00,47.1,41.0,29.97,SE,129,0.0,0.0,82,0.00,,,0.00,WUHU216WMR968SP,2013-02-08 03:36:00,
2013-02-07 22:41:00,47.1,41.0,29.97,SE,129,0.0,0.0,82,0.00,,,0.00,WUHU216WMR968SP,2013-02-08 03:41:00,
2013-02-07 22:46:00,47.1,41.0,29.97,SE,129,0.0,0.0,82,0.00,,,0.00,WUHU216WMR968SP,2013-02-08 03:46:00,
2013-02-07 22:51:00,47.1,41.0,29.97,SE,129,0.0,0.0,82,0.00,,,0.00,WUHU216WMR968SP,2013-02-08 03:51:00,
2013-02-07 22:57:00,47.1,41.0,29.97,SE,129,0.0,0.0,82,0.00,,,0.00,WUHU216WMR968SP,2013-02-08 03:57:00,
2013-02-07 23:02:00,47.1,41.0,29.97,SE,129,0.0,0.0,82,0.00,,,0.00,WUHU216WMR968SP,2013-02-08 04:02:00,
2013-02-07 23:07:00,47.1,41.0,29.97,SE,129,0.0,0.0,83,0.00,,,0.00,WUHU216WMR968SP,2013-02-08 04:07:00,
2013-02-07 23:12:00,47.1,41.0,29.97,SE,129,0.0,0.0,83,0.00,,,0.00,WUHU216WMR968SP,2013-02-08 04:12:00,
2013-02-07 23:17:00,47.1,41.0,29.97,SE,129,0.0,0.0,83,0.00,,,0.00,WUHU216WMR968SP,2013-02-08 04:17:00,
2013-02-07 23:22:00,47.1,41.0,29.97,SE,129,0.0,0.0,83,0.00,,,0.00,WUHU216WMR968SP,2013-02-08 04:22:00,
2013-02-07 23:27:00,47.1,41.0,29.97,SE,129,0.0,0.0,83,0.00,,,0.00,WUHU216WMR968SP,2013-02-08 04:27:00,
2013-02-07 23:32:00,46.9,42.8,29.97,SE,129,0.0,0.0,84,0.00,,,0.00,WUHU216WMR968SP,2013-02-08 04:32:00,
2013-02-07 23:37:00,46.9,42.8,29.97,SE,129,0.0,0.0,84,0.00,,,0.00,WUHU216WMR968SP,2013-02-08 04:37:00,
2013-02-07 23:42:00,46.9,42.8,29.97,SE,129,0.0,0.0,84,0.00,,,0.00,WUHU216WMR968SP,2013-02-08 04:42:00,
2013-02-07 23:47:00,47.1,42.8,29.97,SE,129,0.0,0.0,84,0.00,,,0.00,WUHU216WMR968SP,2013-02-08 04:47:00,
2013-02-07 23:52:00,47.1,42.8,29.97,SE,129,0.0,0.0,84,0.00,,,0.00,WUHU216WMR968SP,2013-02-08 04:52:00,
2013-02-07 23:57:00,47.1,42.8,29.97,SE,129,0.0,0.0,84,0.00,,,0.00,WUHU216WMR968SP,2013-02-08 04:57:00,